Home   Weather   Durban   Past weeks
Flag for South Africa

Past Weather in Durban, South Africa — Yesterday and Last 2 Weeks

Now
55 °F

Sunny.


Feels Like: 52 °F
Forecast: 71 / 50 °F
Wind: 12 mph from Southwest

Location: King Shaka International Airport

Current Time: Jul 21, 2019 at 8:49:49 am

Latest Report: Jul 21, 2019 at 8:00 am


Visibility: 10 mi

Pressure: 30.48 "Hg

Humidity: 41%

Dew Point: 32 °F

Location of DurbanLocation

Past Weather in Durban — Graph

°F

Durban Temperature Yesterday

Maximum temperature yesterday: 66 °F (at 11:01 am)
Minimum temperature yesterday: 54 °F (at 11:00 pm)
Average temperature yesterday: 61 °F

High & Low Weather Summary for the Past Weeks

 TemperatureHumidityPressure
High86 °F (Jul 17, 2:00 pm)100% (Jul 11, 8:00 pm)30.45 "Hg (Jul 11, 8:00 pm)
Low46 °F (Jul 21, 2:00 am)15% (Jul 19, 1:00 pm)29.74 "Hg (Jul 19, 3:00 pm)
Average63 °F70%30.11 "Hg
* Reported Jul 6 7:00 am — Jul 21 7:00 am, Durban. Weather by CustomWeather, © 2019

Note: Actual official high and low records may vary slightly from our data, if they occured in-between our weather recording intervals... More about our weather records

Advertising

Durban Weather History for the Previous 24 Hours

Scroll right to see more
 ConditionsComfort  
Time TempWeatherWind HumidityBarometerVisibility
7:00 am
Sun, Jul 21
52 °FSunny.10 mph47%30.45 "Hg10 mi
6:00 am52 °FClear.10 mph44%30.45 "Hg10 mi
5:00 am50 °FClear.8 mph50%30.42 "Hg10 mi
4:31 am50 °FClear.8 mph50%30.42 "Hg10 mi
4:00 am46 °FClear.7 mph57%30.42 "Hg10 mi
3:00 am50 °FClear.13 mph50%30.42 "Hg10 mi
2:00 am46 °FClear.6 mph62%30.39 "Hg10 mi
1:00 am48 °FClear.5 mph62%30.39 "Hg10 mi
12:00 am48 °FClear.7 mph58%30.36 "Hg10 mi
11:00 pm
Sat, Jul 20
54 °FClear.9 mph47%30.36 "Hg10 mi
10:00 pm55 °FClear.10 mph51%30.33 "Hg10 mi
9:00 pm57 °FClear.16 mph44%30.30 "Hg10 mi
8:00 pm59 °FClear.18 mph45%30.27 "Hg10 mi
7:00 pm59 °FPassing clouds.16 mph55%30.24 "HgN/A
6:41 pm61 °FPassing clouds.18 mph52%30.24 "HgN/A
6:05 pm61 °FPassing clouds.17 mph55%30.21 "HgN/A
5:00 pm63 °FPassing clouds.21 mph52%30.18 "HgN/A
4:00 pm64 °FPassing clouds.22 mph49%30.15 "HgN/A
3:00 pm64 °FSunny.21 mph46%30.12 "Hg10 mi
2:00 pm66 °FSunny.21 mph43%30.12 "Hg10 mi
1:00 pm66 °FSunny.22 mph40%30.09 "Hg10 mi
12:00 pm66 °FPassing clouds.21 mph40%30.09 "HgN/A
11:01 am66 °FScattered clouds.18 mph40%30.12 "HgN/A
10:14 am64 °FPartly sunny.15 mph46%30.09 "HgN/A
10:00 am61 °FPartly sunny.14 mph52%30.09 "HgN/A
9:00 am61 °FPartly sunny.12 mph55%30.07 "HgN/A
8:00 am59 °FPartly sunny.14 mph55%30.07 "HgN/A
Weather by CustomWeather, © 2019

See weather overview